Location: Dittelbrunn
(50.0738°N, 10.2196°E)
Time: 13:27:07
(UTC+00:00)

USA 238 - Pass Details

Date: 18 September 2020
Orbit: 1006 x 1206 km, 63.4° (Epoch: 15 October)

Event Time Altitude Azimuth Distance (km) Brightness Sun altitude
Rises 17:40:53 0° 312° (NW) 3,894 7.7 -3.3°
Reaches altitude 10° 17:43:40 10° 319° (NW) 2,966 6.8 -3.8°
Maximum altitude 17:50:24 44° 30° (NNE) 1,530 4.4 -4.8°
Drops below altitude 10° 17:57:25 10° 102° (ESE) 3,091 5.4 -6.0°
Enters shadow 17:58:17 - 104° (ESE) 3,375 5.6 -6.1°
